Weather History for Pratt, KS

Change the Weather History Date:

Monday, December 10, 2012

  Actual Average (KP28) Record (KP28)
Temperature  
Mean Temperature 22 °F 36 °F  
Max Temperature 37 °F 47 °F 78 °F (1933)
Min Temperature 6 °F 24 °F -5 °F (1919)
Degree Days  
Heating Degree Days 44 30  
Month to date heating degree days 282  
Since 1 July heating degree days 1140  
Cooling Degree Days 0 0  
Month to date cooling degree days 0  
Year to date cooling degree days 1770  
Moisture  
Dew Point 2 °F    
Average Humidity 45    
Maximum Humidity 79    
Minimum Humidity 22    
Precipitation  
Precipitation 0.00 in 0.03 in 1.10 in (1960)
Month to date precipitation 0.30  
Year to date precipitation 26.52  
Snow  
Snow 0.00 in 0.10 in - ()
Month to date snowfall 0.9  
Since 1 July snowfall 1.1  
Snow Depth -    
Sea Level Pressure  
Sea Level Pressure 30.06 in    
Wind  
Wind Speed 13 mph (West)    
Max Wind Speed 24 mph    
Max Gust Speed 30 mph    
Visibility 10 miles    
Events      
T = Trace of Precipitation, MM = Missing Value Source: NWS Daily Summary

Daily Weather History Graph

Daily Weather History Graph

Search for Another Location

Airport:

Trip Planner

Search our weather history database for the weather conditions in past years. The results will help you decide how hot, cold, wet, or windy it might be!

Date:

Astronomy

Dec. 10, 2012 Rise Set
Actual Time 7:39 AM CST 5:16 PM CST
Civil Twilight 7:10 AM CST 5:45 PM CST
Nautical Twilight 6:37 AM CST 6:18 PM CST
Astronomical Twilight 6:05 AM CST 6:50 PM CST
Moon 4:26 AM CST (12/10) 3:05 PM CST (12/10)
Length of Visible Light 10h 35m
Length of Day
9h 36m
Waning Crescent, 10% of the Moon is Illuminated
Dec 10
Waning Crescent
Dec 13
New
Dec 19
First Quarter
Dec 28
Full
Jan 4
Last Quarter

Hourly Weather History & Observations

Time (CST) Temp. Windchill Dew Point Humidity Pressure Visibility Wind Dir Wind Speed Gust Speed Precip Events Conditions
12:15 AM 19.4 °F 2.1 °F 5.0 °F 54% 30.19 in 10.0 mi NNW 24.2 mph 29.9 mph N/A   Clear
12:55 AM 17.6 °F 0.1 °F 3.2 °F 53% 30.18 in 10.0 mi NNW 23.0 mph 26.5 mph N/A   Clear
1:15 AM 17.6 °F 1.7 °F 1.4 °F 49% 30.18 in 10.0 mi NNW 18.4 mph 25.3 mph N/A   Clear
1:35 AM 17.6 °F 1.7 °F 1.4 °F 49% 30.17 in 10.0 mi NNW 18.4 mph 26.5 mph N/A   Clear
1:55 AM 15.8 °F 0.9 °F 1.4 °F 53% 30.16 in 10.0 mi NNW 15.0 mph 23.0 mph N/A   Clear
2:15 AM 14.0 °F -1.4 °F 1.4 °F 57% 30.16 in 10.0 mi NNW 15.0 mph - N/A   Clear
2:55 AM 14.0 °F -1.4 °F 1.4 °F 57% 30.16 in 10.0 mi NNW 15.0 mph - N/A   Clear
3:15 AM 14.0 °F -2.0 °F 1.4 °F 57% 30.16 in 10.0 mi NNW 16.1 mph - N/A   Clear
3:35 AM 12.2 °F -2.5 °F 1.4 °F 62% 30.17 in 10.0 mi NNW 12.7 mph - N/A   Clear
3:55 AM 12.2 °F -3.1 °F 1.4 °F 62% 30.16 in 10.0 mi NNW 13.8 mph - N/A   Clear
4:15 AM 12.2 °F -3.1 °F 1.4 °F 62% 30.16 in 10.0 mi NNW 13.8 mph - N/A   Clear
4:35 AM 12.2 °F -2.5 °F 1.4 °F 62% 30.16 in 10.0 mi NNW 12.7 mph - N/A   Clear
4:55 AM 12.2 °F -1.8 °F 1.4 °F 62% 30.15 in 10.0 mi NNW 11.5 mph - N/A   Clear
5:15 AM 10.4 °F -2.4 °F 1.4 °F 67% 30.14 in 10.0 mi NNW 9.2 mph - N/A   Clear
5:35 AM 10.4 °F -2.4 °F 1.4 °F 67% 30.15 in 10.0 mi NW 9.2 mph - N/A   Clear
5:55 AM 8.6 °F -3.7 °F 1.4 °F 73% 30.14 in 10.0 mi NW 8.1 mph - N/A   Clear
6:15 AM 8.6 °F -3.7 °F 1.4 °F 73% 30.14 in 10.0 mi NW 8.1 mph - N/A   Clear
6:35 AM 8.6 °F -5.5 °F 1.4 °F 73% 30.15 in 10.0 mi NW 10.4 mph - N/A   Clear
6:55 AM 8.6 °F -2.6 °F 1.4 °F 73% 30.15 in 10.0 mi WNW 6.9 mph - N/A   Clear
7:15 AM 8.6 °F -3.7 °F 1.4 °F 73% 30.15 in 7.0 mi WNW 8.1 mph - N/A   Clear
7:35 AM 8.6 °F -3.7 °F 1.4 °F 73% 30.15 in 10.0 mi NW 8.1 mph - N/A   Clear
7:55 AM 6.8 °F -5.9 °F 1.4 °F 79% 30.15 in 10.0 mi WNW 8.1 mph - N/A   Clear
8:15 AM 8.6 °F -2.6 °F 1.4 °F 73% 30.14 in 10.0 mi WNW 6.9 mph - N/A   Clear
8:35 AM 10.4 °F -2.4 °F 1.4 °F 67% 30.14 in 10.0 mi WNW 9.2 mph - N/A   Clear
8:55 AM 12.2 °F -1.8 °F 1.4 °F 62% 30.13 in 10.0 mi NW 11.5 mph - N/A   Clear
9:15 AM 14.0 °F 0.5 °F 3.2 °F 62% 30.13 in 10.0 mi NW 11.5 mph - N/A   Clear
9:35 AM 17.6 °F 6.4 °F 3.2 °F 53% 30.13 in 10.0 mi NW 9.2 mph - N/A   Clear
9:55 AM 19.4 °F 10.4 °F 3.2 °F 49% 30.13 in 10.0 mi NW 6.9 mph - N/A   Clear
10:15 AM 21.2 °F 13.6 °F 3.2 °F 46% 30.13 in 10.0 mi NW 5.8 mph - N/A   Clear
10:35 AM 23.0 °F 14.7 °F 1.4 °F 39% 30.13 in 10.0 mi West 6.9 mph - N/A   Clear
10:55 AM 24.8 °F 17.9 °F -0.4 °F 34% 30.12 in 10.0 mi WNW 5.8 mph - N/A   Clear
11:15 AM 26.6 °F 22.6 °F -0.4 °F 31% 30.11 in 10.0 mi West 3.5 mph - N/A   Clear
11:55 AM 30.2 °F 23.4 °F -0.4 °F 27% 30.09 in 10.0 mi WSW 6.9 mph - N/A   Clear
12:15 PM 32.0 °F 23.6 °F 1.4 °F 27% 30.08 in 10.0 mi West 10.4 mph - N/A   Clear
12:35 PM 32.0 °F 24.8 °F 1.4 °F 27% 30.07 in 10.0 mi West 8.1 mph - N/A   Clear
12:55 PM 32.0 °F 24.2 °F 1.4 °F 27% 30.05 in 10.0 mi West 9.2 mph - N/A   Clear
1:15 PM 33.8 °F 27.0 °F 1.4 °F 25% 30.03 in 10.0 mi WSW 8.1 mph - N/A   Clear
1:35 PM 33.8 °F 25.3 °F 1.4 °F 25% 30.02 in 10.0 mi WSW 11.5 mph - N/A   Clear
1:55 PM 35.6 °F 28.6 °F 1.4 °F 24% 30.01 in 10.0 mi WSW 9.2 mph - N/A   Clear
2:15 PM 37.4 °F 29.3 °F 3.2 °F 24% 30.00 in 10.0 mi WSW 12.7 mph 18.4 mph N/A   Clear
2:35 PM 37.4 °F 29.8 °F 3.2 °F 24% 29.99 in 10.0 mi SW 11.5 mph - N/A   Clear
2:55 PM 37.4 °F 29.8 °F 1.4 °F 22% 29.98 in 10.0 mi SW 11.5 mph 17.3 mph N/A   Clear
3:15 PM 37.4 °F 29.3 °F 1.4 °F 22% 29.98 in 10.0 mi SW 12.7 mph 17.3 mph N/A   Clear
3:55 PM 37.4 °F 28.9 °F 1.4 °F 22% 29.96 in 10.0 mi SW 13.8 mph - N/A   Clear
4:15 PM 35.6 °F 27.1 °F 1.4 °F 24% 29.96 in 10.0 mi SW 12.7 mph - N/A   Clear
4:35 PM 35.6 °F 28.0 °F 1.4 °F 24% 29.96 in 10.0 mi SW 10.4 mph - N/A   Clear
4:55 PM 33.8 °F 26.4 °F 1.4 °F 25% 29.96 in 10.0 mi SSW 9.2 mph - N/A   Clear
5:15 PM 32.0 °F 24.2 °F 1.4 °F 27% 29.96 in 10.0 mi SSW 9.2 mph - N/A   Clear
5:35 PM 30.2 °F 21.9 °F 1.4 °F 29% 29.96 in 10.0 mi SSW 9.2 mph - N/A   Clear
5:55 PM 26.6 °F 17.5 °F 1.4 °F 34% 29.97 in 10.0 mi SSW 9.2 mph - N/A   Clear
6:15 PM 26.6 °F 17.5 °F 1.4 °F 34% 29.96 in 10.0 mi South 9.2 mph - N/A   Clear
6:35 PM 26.6 °F 16.8 °F 1.4 °F 34% 29.96 in 10.0 mi SSW 10.4 mph - N/A   Clear
6:55 PM 24.8 °F 14.6 °F 1.4 °F 36% 29.96 in 10.0 mi SSW 10.4 mph - N/A   Clear
7:15 PM 23.0 °F 12.4 °F 1.4 °F 39% 29.96 in 10.0 mi SSW 10.4 mph - N/A   Clear
7:35 PM 24.8 °F 16.1 °F 1.4 °F 36% 29.97 in 10.0 mi SSW 8.1 mph - N/A   Clear
7:55 PM 23.0 °F 11.7 °F 3.2 °F 43% 29.97 in 10.0 mi SSW 11.5 mph - N/A   Clear
8:15 PM 26.6 °F 16.2 °F 1.4 °F 34% 29.97 in 10.0 mi SSW 11.5 mph - N/A   Clear
8:35 PM 26.6 °F 16.2 °F 1.4 °F 34% 29.98 in 10.0 mi SSW 11.5 mph - N/A   Clear
8:55 PM 24.8 °F 14.6 °F 1.4 °F 36% 29.97 in 10.0 mi SSW 10.4 mph - N/A   Clear
9:15 PM 23.0 °F 13.9 °F 3.2 °F 43% 29.97 in 10.0 mi SSW 8.1 mph - N/A   Clear
9:35 PM 23.0 °F 13.1 °F 1.4 °F 39% 29.97 in 10.0 mi SSW 9.2 mph - N/A   Clear
9:55 PM 24.8 °F 14.0 °F 1.4 °F 36% 29.97 in 10.0 mi SSW 11.5 mph - N/A   Clear
10:15 PM 24.8 °F 13.4 °F 1.4 °F 36% 29.97 in 10.0 mi SSW 12.7 mph - N/A   Clear
10:35 PM 23.0 °F 13.1 °F 1.4 °F 39% 29.98 in 10.0 mi SSW 9.2 mph - N/A   Clear
10:55 PM 21.2 °F 10.9 °F 3.2 °F 46% 29.99 in 10.0 mi SSW 9.2 mph - N/A   Clear
11:15 PM 21.2 °F 10.9 °F 3.2 °F 46% 29.99 in 10.0 mi SW 9.2 mph - N/A   Clear
11:35 PM 19.4 °F 9.5 °F 3.2 °F 49% 29.99 in 10.0 mi SW 8.1 mph - N/A   Clear
11:55 PM 19.4 °F 8.6 °F 3.2 °F 49% 29.99 in 10.0 mi SW 9.2 mph - N/A   Clear